VK2RZ Weather Reports


Display with metric or nautical units.
time (UTC)temp
F
wind
direction
speed
MPH
gust
MPH
rain 1hr
in
rain 24hr
in
rain mn
in
humidity
%
barometer
mb
20260510173134 59 234 4.0 12.0 0.00 0.00 0.00 8 1030.8
20260510172134 59 253 9.0 10.0 0.00 0.00 0.00 8 1030.7
20260510171134 59 251 4.0 12.0 0.00 0.00 0.00 8 1030.6
20260510170133 59 255 9.0 11.0 0.00 0.00 0.00 8 1030.6
20260510165133 59 241 4.0 11.0 0.00 0.00 0.00 8 1030.7
20260510164133 59 243 4.0 8.0 0.00 0.00 0.00 8 1030.7
20260510163133 59 223 7.0 11.0 0.00 0.00 0.00 8 1030.8
20260510162133 59 251 11.0 12.0 0.00 0.00 0.00 8 1030.8
20260510161133 59 238 1.0 9.0 0.00 0.00 0.00 8 1030.7
20260510160133 59 264 1.0 6.0 0.00 0.00 0.00 8 1030.7
20260510155133 59 251 8.0 12.0 0.00 0.00 0.00 8 1030.7
20260510154133 59 228 7.0 13.0 0.00 0.00 0.00 8 1030.7
20260510153133 59 263 7.0 8.0 0.00 0.00 0.00 8 1030.8
20260510152133 58 235 3.0 3.0 0.00 0.00 0.00 8 1030.9
20260510151133 58 242 4.0 8.0 0.00 0.00 0.00 8 1030.8
20260510150133 59 247 3.0 9.0 0.00 0.00 0.00 8 1030.9
20260510145133 60 251 4.0 9.0 0.00 0.00 0.00 8 1030.9
20260510144133 60 242 2.0 10.0 0.00 0.00 0.00 8 1031.0
20260510143133 60 224 1.0 7.0 0.00 0.00 0.00 8 1031.0
20260510142133 60 229 5.0 8.0 0.00 0.00 0.00 8 1031.0
20260510141133 60 285 4.0 7.0 0.00 0.00 0.00 8 1030.9
20260510140133 60 250 5.0 7.0 0.00 0.00 0.00 8 1031.0
20260510135133 60 247 6.0 10.0 0.00 0.00 0.00 8 1031.0
20260510134133 60 233 4.0 10.0 0.00 0.00 0.00 8 1031.1
20260510133133 60 225 6.0 11.0 0.00 0.00 0.00 8 1031.1
20260510132133 60 234 4.0 10.0 0.00 0.00 0.00 8 1031.1
20260510131133 60 252 10.0 11.0 0.00 0.00 0.00 8 1031.1
20260510130133 61 227 5.0 11.0 0.00 0.00 0.00 8 1031.1
20260510125133 61 235 6.0 9.0 0.00 0.00 0.00 8 1031.2
20260510124133 61 231 6.0 11.0 0.00 0.00 0.00 8 1031.4
20260510123133 61 210 3.0 10.0 0.00 0.00 0.00 8 1031.5
20260510122131 62 231 4.0 10.0 0.00 0.00 0.00 8 1031.5
20260510121130 62 240 3.0 12.0 0.00 0.00 0.00 8 1031.7
20260510120130 62 247 5.0 9.0 0.00 0.00 0.00 7 1031.6
20260510115129 63 214 2.0 7.0 0.00 0.00 0.00 8 1031.7
20260510114129 63 233 4.0 5.0 0.00 0.00 0.00 7 1031.5
20260510113128 63 231 6.0 9.0 0.00 0.00 0.00 7 1031.5
20260510112128 63 234 4.0 8.0 0.00 0.00 0.00 7 1031.5
20260510111128 63 230 3.0 6.0 0.00 0.00 0.00 7 1031.5
20260510110128 63 233 5.0 6.0 0.00 0.00 0.00 7 1031.5
20260510105339 63 221 3.0 7.0 0.00 0.00 0.00 7 1031.4
20260510105128 63 221 3.0 7.0 0.00 0.00 0.00 7 1031.4
20260510104128 63 203 4.0 6.0 0.00 0.00 0.00 7 1031.3
20260510103128 63 229 4.0 6.0 0.00 0.00 0.00 7 1031.3
20260510102128 63 245 3.0 6.0 0.00 0.00 0.00 7 1031.3
20260510101128 63 227 2.0 6.0 0.00 0.00 0.00 7 1031.2
20260510100128 63 0 0.0 3.0 0.00 0.00 0.00 7 1031.2
20260510095128 63 237 1.0 5.0 0.00 0.00 0.00 7 1031.1
20260510094128 63 220 1.0 5.0 0.00 0.00 0.00 7 1031.1
20260510093128 63 198 1.0 3.0 0.00 0.00 0.00 7 1031.0
20260510092128 63 197 2.0 4.0 0.00 0.00 0.00 7 1030.9
20260510091128 63 269 2.0 3.0 0.00 0.00 0.00 7 1030.8
20260510090128 63 225 2.0 6.0 0.00 0.00 0.00 7 1030.7
20260510085128 63 189 1.0 4.0 0.00 0.00 0.00 7 1030.6
20260510084128 63 212 4.0 4.0 0.00 0.00 0.00 7 1030.5
20260510083128 63 215 1.0 3.0 0.00 0.00 0.00 7 1030.4
20260510082128 64 0 0.0 3.0 0.00 0.00 0.00 7 1030.3
20260510081128 64 0 0.0 2.0 0.00 0.00 0.00 7 1030.3
20260510080128 64 201 2.0 4.0 0.00 0.00 0.00 7 1030.2
20260510075128 64 0 0.0 4.0 0.00 0.00 0.00 7 1030.1
20260510074128 64 141 1.0 4.0 0.00 0.00 0.00 7 1029.9
20260510073128 64 195 5.0 7.0 0.00 0.00 0.00 7 1029.9
20260510072128 64 209 3.0 8.0 0.00 0.00 0.00 7 1029.8
20260510071128 65 0 0.0 9.0 0.00 0.00 0.00 7 1029.6
20260510070128 65 175 3.0 5.0 0.00 0.00 0.00 7 1029.5
20260510065128 65 171 2.0 4.0 0.00 0.00 0.00 7 1029.3
20260510064128 65 166 1.0 4.0 0.00 0.00 0.00 7 1029.3
20260510063128 66 164 4.0 10.0 0.00 0.00 0.00 7 1029.2
20260510062128 66 185 4.0 9.0 0.00 0.00 0.00 7 1029.1
20260510061128 66 167 8.0 12.0 0.00 0.00 0.00 7 1028.9
20260510060128 66 175 3.0 10.0 0.00 0.00 0.00 7 1028.7
20260510055128 66 162 3.0 11.0 0.00 0.00 0.00 7 1028.7
20260510054128 67 160 2.0 8.0 0.00 0.00 0.00 7 1028.5
20260510053202 67 158 2.0 9.0 0.00 0.00 0.00 7 1028.4
20260510053128 67 158 2.0 9.0 0.00 0.00 0.00 7 1028.4
20260510052128 67 185 3.0 7.0 0.00 0.00 0.00 7 1028.3
20260510051128 68 175 2.0 4.0 0.00 0.00 0.00 6 1028.1
20260510050128 68 210 2.0 3.0 0.00 0.00 0.00 6 1028.1
20260510045128 68 160 5.0 7.0 0.00 0.00 0.00 6 1028.2
20260510044128 68 201 9.0 12.0 0.00 0.00 0.00 6 1028.0
20260510043128 68 145 6.0 6.0 0.00 0.00 0.00 6 1028.1
20260510042128 68 144 4.0 9.0 0.00 0.00 0.00 6 1028.1
20260510041128 69 218 2.0 9.0 0.00 0.00 0.00 6 1028.2
20260510040128 70 216 3.0 10.0 0.00 0.00 0.00 6 1028.2
20260510035128 69 161 3.0 11.0 0.00 0.00 0.00 6 1028.2
20260510034128 69 87 6.0 9.0 0.00 0.00 0.00 6 1028.1
20260510033128 69 136 2.0 9.0 0.00 0.00 0.00 6 1028.0
20260510032128 69 74 7.0 10.0 0.00 0.00 0.00 6 1028.0
20260510031128 68 118 5.0 6.0 0.00 0.00 0.00 6 1028.0
20260510030128 70 189 1.0 5.0 0.00 0.00 0.00 6 1028.0
20260510025128 70 226 1.0 8.0 0.00 0.00 0.00 6 1028.0
20260510024128 70 150 1.0 3.0 0.00 0.00 0.00 6 1028.1
20260510023128 70 0 0.0 4.0 0.00 0.00 0.00 6 1028.1
20260510022127 70 0 0.0 3.0 0.00 0.00 0.00 6 1028.2
20260510021127 70 193 2.0 2.0 0.00 0.00 0.00 6 1028.3
20260510020127 69 245 2.0 5.0 0.00 0.00 0.00 6 1028.5
20260510015127 69 162 4.0 5.0 0.00 0.00 0.00 6 1028.6
20260510014126 69 122 2.0 6.0 0.00 0.00 0.00 6 1028.7
20260510013126 69 249 2.0 5.0 0.00 0.00 0.00 6 1028.7
20260510012126 68 220 5.0 5.0 0.00 0.00 0.00 6 1028.9
20260510011126 68 197 2.0 5.0 0.00 0.00 0.00 6 1029.1
20260510010126 67 180 2.0 4.0 0.00 0.00 0.00 6 1029.3
20260510005126 67 252 4.0 8.0 0.00 0.00 0.00 6 1029.3
20260510004126 66 235 1.0 9.0 0.00 0.00 0.00 6 1029.3
20260510003126 66 220 3.0 5.0 0.00 0.00 0.00 6 1029.4
20260510002126 65 242 2.0 6.0 0.00 0.00 0.00 6 1029.4
20260510001126 64 237 3.0 7.0 0.00 0.00 0.00 6 1029.3
20260510000126 64 274 6.0 7.0 0.00 0.00 0.00 6 1029.1
20260509235126 63 247 4.0 8.0 0.00 0.00 0.00 7 1029.0
20260509234126 62 241 8.0 10.0 0.00 0.00 0.00 7 1029.0
20260509233126 61 216 9.0 10.0 0.00 0.00 0.00 7 1028.8
20260509232126 61 232 4.0 10.0 0.00 0.00 0.00 7 1028.9
20260509231126 60 253 9.0 10.0 0.00 0.00 0.00 7 1028.8
20260509230126 60 247 4.0 10.0 0.00 0.00 0.00 7 1028.8
20260509225126 59 240 10.0 13.0 0.00 0.00 0.00 7 1028.7
20260509224126 59 245 6.0 11.0 0.00 0.00 0.00 7 1028.7
20260509223126 58 243 11.0 14.0 0.00 0.00 0.00 7 1028.8
20260509222126 58 221 5.0 10.0 0.00 0.00 0.00 7 1028.7
20260509221126 57 242 8.0 8.0 0.00 0.00 0.00 7 1028.7
20260509220126 57 257 9.0 10.0 0.00 0.00 0.00 7 1028.6
20260509215126 56 231 5.0 9.0 0.00 0.00 0.00 7 1028.5
20260509214126 56 246 6.0 13.0 0.00 0.00 0.00 7 1028.4
20260509213126 55 253 5.0 9.0 0.00 0.00 0.00 7 1028.3
20260509212126 55 247 5.0 10.0 0.00 0.00 0.00 7 1028.2
20260509211126 55 254 9.0 9.0 0.00 0.00 0.00 7 1028.0
20260509210126 54 247 9.0 10.0 0.00 0.00 0.00 8 1027.8
20260509205126 54 225 6.0 11.0 0.00 0.00 0.00 8 1027.6
20260509204126 54 250 9.0 11.0 0.00 0.00 0.00 7 1027.5
20260509203126 55 261 7.0 12.0 0.00 0.00 0.00 7 1027.4
20260509202126 55 276 3.0 7.0 0.00 0.00 0.00 7 1027.3
20260509201126 55 268 4.0 10.0 0.00 0.00 0.00 7 1027.1
20260509200126 55 257 5.0 7.0 0.00 0.00 0.00 7 1027.1
20260509195126 55 254 2.0 7.0 0.00 0.00 0.00 7 1027.0
20260509194126 56 268 5.0 9.0 0.00 0.00 0.00 7 1026.8
20260509193126 56 245 2.0 8.0 0.00 0.00 0.00 7 1026.6
20260509192126 56 270 3.0 6.0 0.00 0.00 0.00 7 1026.5
20260509191126 56 249 3.0 10.0 0.00 0.00 0.00 7 1026.5
20260509190126 56 285 3.0 9.0 0.00 0.00 0.00 7 1026.4
20260509185126 56 278 4.0 9.0 0.00 0.00 0.00 7 1026.3
20260509184126 56 271 6.0 10.0 0.00 0.00 0.00 7 1026.3
20260509183126 55 234 6.0 9.0 0.00 0.00 0.00 7 1026.1
20260509182126 56 259 3.0 9.0 0.00 0.00 0.00 7 1026.2
20260509181126 56 241 5.0 7.0 0.00 0.00 0.00 7 1026.2
20260509180126 56 250 4.0 7.0 0.00 0.00 0.00 7 1026.1
20260509175126 56 254 8.0 9.0 0.00 0.00 0.00 7 1026.2
20260509174126 56 253 7.0 8.0 0.00 0.00 0.00 7 1026.2